Location: Karcze
(52.0945°N, 22.4786°E)
Time: 22:19:32
(UTC+00:00)

Transit 2A Rocket - Pass Details

Date: 04 August 2021
Orbit: 586 x 917 km, 66.7° (Epoch: 26 September)

Event Time Altitude Azimuth Distance (km) Brightness Sun altitude
Rises 11:44:16 0° 197° (SSW) 2,859 8.6 52.5°
Reaches altitude 10° 11:46:30 10° 191° (S) 1,990 8.0 52.4°
Maximum altitude 11:50:45 45° 119° (ESE) 902 6.0 52.0°
Drops below altitude 10° 11:55:24 10° 48° (NE) 2,172 7.1 51.7°
Sets 11:57:56 0° 42° (NE) 3,153 7.8 51.5°
